RH
81 76 77 76 71 70 74 74 76 76 76 79 81 81 81 81 80 79 77 82 86 84 82 79 79 83 86 80 72 63 56 57 59 63 62 60 61 61 61 60 63 63 63 62 59 58 57 57 56 55 54 54 54 54 52 50 48 48 47 47 50 50 45 38 34 31 39 53 55 53 49 49 51 48 47 47 47 49 51 53 53 50 49 51 49 46 47 53 53 52 52 50 47 47 52 54 53
85 80 73 73 72 70 73 72 75 80 82 87 86 82 79 79 80 78 77 82 85 83 80 77 79 82 84 80 76 71 63 60 59 56 57 58 59 59 57 58 59 61 60 59 59 58 57 56 55 55 53 52 52 52 51 49 46 48 49 50 51 50 46 42 39 33 33 46 53 52 49 50 48 44 44 44 45 45 45 47 47 47 49 52 51 49 47 50 52 50 50 49 47 47 52 53 52
77 83 76 70 68 68 70 71 77 81 82 87 87 83 80 77 77 77 79 82 81 81 76 72 77 78 80 81 81 77 70 72 68 55 54 56 56 54 54 55 56 59 58 56 56 56 57 56 55 53 51 51 50 49 48 48 47 48 50 51 51 48 45 43 42 39 38 44 51 52 49 49 47 43 44 44 44 43 43 43 43 46 51 53 51 50 49 48 49 49 48 49 48 47 49 51 51
76 80 76 68 66 67 69 72 78 79 81 85 85 81 76 74 74 77 81 82 81 77 70 66 64 65 71 75 80 76 69 76 71 55 52 55 56 54 54 56 56 57 56 55 54 54 55 54 54 52 52 52 49 48 46 47 47 48 50 50 50 48 47 44 42 44 47 51 51 49 49 49 47 44 45 45 43 43 44 45 47 50 54 54 52 49 48 48 48 49 49 49 49 48 49 49 48
85 80 75 71 67 67 68 72 76 77 79 81 81 79 74 74 75 77 81 81 81 73 63 55 49 56 64 66 70 63 59 66 64 56 54 56 60 59 58 59 59 58 56 55 54 53 54 54 54 53 55 53 51 51 48 47 48 50 51 49 50 51 50 46 43 43 49 55 51 47 48 46 45 43 44 44 42 43 44 47 49 51 52 52 51 50 48 48 48 49 52 51 49 49 48 46 41
86 79 77 74 68 68 69 71 75 77 80 80 80 80 77 78 77 79 79 78 78 72 62 48 42 49 53 59 62 58 59 60 59 60 58 57 61 61 61 59 57 56 55 55 55 55 54 54 55 56 57 53 53 54 51 50 51 53 53 51 50 50 49 47 45 44 46 49 47 45 45 43 43 44 44 43 43 44 45 46 47 49 49 50 50 50 48 47 48 50 53 52 49 45 39 35 32
82 78 77 73 69 72 71 71 75 78 81 81 79 79 78 79 80 80 74 76 78 73 64 48 40 39 44 57 60 63 65 61 60 61 59 57 57 57 56 52 49 51 54 55 55 55 53 54 55 55 56 55 55 54 52 51 52 55 59 56 50 49 48 48 48 47 48 46 45 46 45 45 44 45 45 45 45 46 45 46 47 48 47 48 49 49 49 48 49 51 52 52 47 36 26 22 19
78 78 77 72 71 75 74 72 77 80 81 81 80 80 80 80 81 79 71 74 78 71 60 47 41 36 46 56 52 62 68 64 62 60 60 56 53 53 52 49 45 45 50 52 51 52 52 53 53 53 55 55 54 54 52 50 51 53 56 57 52 52 51 50 49 49 52 48 46 48 48 47 46 46 47 47 47 46 46 46 46 45 44 45 49 51 51 51 51 53 53 48 36 22 14 12 17
74 77 76 71 71 76 76 75 79 81 81 83 84 82 80 80 78 76 71 75 76 71 64 55 48 41 52 55 47 59 65 63 60 61 63 55 52 53 53 53 48 44 43 45 45 45 48 51 51 51 52 52 50 49 49 49 52 52 53 56 57 57 55 52 49 49 52 49 47 47 47 47 47 46 47 49 50 50 49 48 46 45 43 43 48 52 54 54 54 54 48 35 20 12 12 18 31
73 75 75 73 72 75 76 77 81 80 80 83 82 81 80 78 75 75 74 76 75 73 75 68 54 46 53 52 47 56 55 54 51 53 58 53 52 53 54 55 54 51 45 43 41 41 43 46 47 45 45 46 46 46 47 49 52 54 54 55 59 59 57 53 50 51 51 51 49 47 46 47 48 47 47 50 53 52 50 48 47 47 46 44 47 50 53 53 51 48 35 18 10 13 23 33 41
78 76 74 75 75 76 77 78 81 79 80 83 80 79 79 75 75 79 75 75 77 73 74 67 50 42 45 45 49 52 49 53 52 47 51 54 56 56 57 56 55 56 53 52 49 47 47 46 46 46 47 49 49 50 53 54 54 56 55 54 58 61 58 54 51 53 55 54 51 48 47 48 49 49 49 51 53 51 49 49 47 47 45 42 45 50 49 42 38 33 18 11 17 27 36 41 44
81 78 71 74 79 81 80 77 80 80 79 82 81 75 74 75 76 81 77 74 76 68 63 54 39 34 33 40 53 54 49 53 54 50 51 54 55 56 60 61 59 58 57 59 56 51 50 49 49 50 53 56 55 57 58 58 58 57 57 56 59 61 58 55 51 53 58 56 52 50 48 49 49 50 51 51 52 51 51 50 47 47 43 40 43 42 34 24 21 17 13 20 30 37 41 44 49
81 79 70 72 80 82 80 77 77 77 78 81 82 75 71 76 78 81 79 73 71 65 62 51 35 30 30 40 57 66 61 52 51 51 49 49 51 54 59 62 63 60 58 61 59 52 52 52 52 54 55 55 57 62 62 61 61 58 60 62 62 60 57 58 54 52 55 55 53 52 50 49 49 51 53 52 51 50 49 47 47 47 40 37 35 27 17 12 13 16 23 31 35 39 43 46 50
81 77 71 73 79 81 80 78 76 76 79 79 78 75 72 76 78 80 79 75 76 70 64 56 40 30 29 38 56 72 69 52 49 50 47 47 51 55 58 62 64 60 58 60 58 52 54 55 55 58 58 58 61 66 66 64 61 58 62 66 63 58 58 60 55 52 53 53 53 53 52 49 49 51 51 50 49 47 45 42 45 45 35 27 20 13 10 12 19 28 34 35 36 40 43 43 43
82 74 69 72 75 78 78 77 78 77 76 75 75 76 75 77 79 80 81 79 80 73 65 66 59 40 29 33 44 56 58 49 47 48 48 48 52 58 61 66 67 61 61 61 59 55 55 58 60 61 60 61 64 67 68 65 61 61 65 65 60 55 58 60 54 52 52 52 54 54 52 49 48 48 48 48 46 45 40 36 39 37 24 15 12 11 14 21 31 39 41 39 39 39 39 38 38
81 72 66 70 75 76 75 73 77 78 72 70 71 76 77 76 77 79 83 78 72 75 73 72 69 57 41 35 31 35 45 45 46 50 49 51 56 63 64 70 69 60 60 60 59 58 58 62 65 64 61 62 63 64 66 65 61 62 66 63 57 55 59 59 52 51 52 53 54 54 52 50 48 47 47 46 46 44 35 31 31 23 14 13 16 18 23 31 39 43 44 42 39 38 37 36 35
78 73 64 66 75 77 75 72 76 79 71 68 71 78 78 73 77 79 83 77 70 79 82 76 75 69 50 37 30 30 39 41 45 49 48 54 62 67 68 70 69 60 59 62 63 61 61 65 67 67 64 64 65 65 64 62 61 60 60 60 58 57 59 57 52 52 52 53 53 53 54 52 49 46 44 45 46 39 30 26 21 14 14 20 23 26 31 35 40 42 43 41 40 40 38 35 32
74 74 66 63 69 70 74 76 78 77 67 69 76 80 78 76 80 79 82 81 77 82 83 81 78 74 54 37 36 34 37 40 46 47 48 60 67 70 70 68 67 64 60 62 66 64 63 66 67 69 68 67 66 66 64 62 62 59 57 58 58 57 56 54 52 52 52 52 51 52 52 49 46 41 41 42 40 31 24 20 15 16 21 26 29 31 33 35 38 41 42 42 42 43 41 37 33
73 74 66 62 66 62 67 76 77 71 67 74 80 83 82 80 77 75 82 82 81 84 82 80 72 70 61 41 38 37 36 40 44 44 53 69 72 70 71 67 65 66 63 60 63 64 65 66 66 69 70 68 66 66 66 63 62 60 58 57 56 54 53 53 53 52 49 47 44 45 47 45 40 36 35 34 29 23 19 16 17 22 26 28 31 32 33 35 38 41 45 47 48 47 44 39 36
72 76 64 60 66 63 66 78 77 67 69 79 80 79 76 72 70 71 80 80 81 81 72 70 61 59 58 43 37 37 37 39 40 45 59 74 75 71 70 69 65 62 62 59 60 63 65 66 66 69 69 67 67 67 64 63 62 59 57 56 54 53 51 50 47 42 36 32 30 34 41 42 36 31 27 24 22 19 16 19 24 26 27 29 30 31 33 35 38 43 48 52 53 50 45 42 39
70 74 62 58 60 62 70 77 73 62 62 69 66 67 65 63 68 71 75 76 79 78 67 64 58 52 49 40 36 35 36 37 43 59 73 78 77 73 70 67 61 56 56 57 62 64 64 64 64 66 66 66 67 66 62 62 62 57 54 54 53 51 46 38 31 26 22 21 21 25 30 30 27 23 20 20 20 17 18 24 27 27 28 29 30 31 33 37 44 50 55 57 54 49 46 43 41
65 66 58 57 54 55 68 72 68 62 60 64 63 66 66 63 71 75 75 73 71 73 70 70 69 60 47 37 35 36 38 46 61 77 81 79 78 73 68 65 57 52 53 57 64 65 62 60 63 65 64 64 65 65 63 61 60 56 53 52 51 49 40 27 21 20 20 20 20 20 21 21 19 18 18 19 18 18 23 26 26 27 28 28 29 30 32 40 49 55 60 62 56 49 46 42 39
61 63 58 56 52 50 60 67 67 65 61 64 71 73 70 69 73 75 78 76 71 71 72 73 74 64 46 37 39 39 44 59 74 81 80 79 80 73 67 63 55 51 54 56 60 61 60 61 64 64 62 63 65 65 62 60 60 55 50 49 49 45 32 22 20 20 20 20 20 20 20 18 17 17 18 17 18 22 26 26 26 27 28 28 28 29 33 40 46 49 54 58 53 45 42 39 36
61 57 54 51 51 52 55 62 68 71 69 69 77 79 74 75 76 75 78 78 75 74 74 72 67 55 43 43 48 45 50 62 70 77 80 81 80 72 66 60 53 52 54 53 55 57 58 60 62 62 61 62 63 63 60 58 58 52 47 46 44 37 27 22 22 23 24 21 18 18 19 18 18 18 17 17 20 25 27 27 28 28 29 29 27 31 39 44 46 48 50 52 45 39 38 35 33
61 48 46 47 49 55 55 61 67 74 80 78 81 81 75 75 76 77 79 78 78 77 77 70 55 48 46 52 57 52 55 65 70 77 80 79 75 67 63 57 53 53 54 54 54 55 56 57 59 60 59 59 60 60 57 55 53 50 47 44 39 33 29 29 32 36 35 26 22 23 22 21 21 19 17 19 24 26 26 27 27 27 28 29 30 36 42 45 46 46 48 46 40 36 35 34 33
51 44 44 47 52 58 59 65 69 74 85 84 80 77 76 76 75 78 77 77 80 79 80 69 50 51 56 62 70 65 66 74 78 79 77 73 68 64 61 55 52 51 51 53 53 54 56 56 57 59 58 57 58 58 55 53 51 50 48 44 41 38 38 39 41 43 42 37 36 33 26 22 20 19 20 23 26 26 27 29 28 27 29 31 34 39 43 45 44 42 41 39 36 34 33 32 33
44 42 43 49 55 58 63 74 74 76 83 83 79 75 76 78 76 77 76 78 81 81 83 70 53 59 68 76 83 78 79 84 83 78 71 64 59 62 61 54 53 51 49 51 52 54 56 55 55 55 56 56 56 55 53 53 52 51 50 48 47 45 44 43 42 44 46 49 48 38 27 21 19 21 24 25 25 27 32 34 33 31 31 33 37 41 44 44 42 38 37 36 33 33 32 31 31
43 42 45 50 56 60 73 82 77 78 82 81 80 76 76 78 76 78 79 79 81 83 80 71 65 73 82 88 89 85 87 88 84 77 67 57 54 60 60 55 54 51 49 49 49 52 54 55 55 53 54 54 54 53 52 53 53 52 52 51 49 47 45 45 45 49 53 55 55 47 35 26 25 28 28 27 29 34 41 44 42 38 37 39 41 41 42 43 42 41 39 36 32 31 32 30 29
42 47 52 52 55 63 78 84 82 84 83 81 81 76 76 77 77 79 80 80 82 83 78 76 81 88 91 90 87 86 87 87 84 75 63 52 49 58 61 57 53 49 49 48 47 50 51 53 55 54 54 53 52 52 52 53 52 51 50 49 48 47 48 49 51 56 57 56 58 57 46 36 36 39 34 32 38 45 48 49 48 46 44 44 43 41 44 46 46 45 42 35 31 31 31 29 28
43 49 55 55 55 61 74 82 85 86 81 80 81 76 75 77 77 78 78 80 83 83 80 82 89 91 91 88 84 85 84 85 83 73 62 51 48 56 61 57 52 50 50 47 46 50 51 51 52 53 54 54 53 52 53 53 52 50 49 49 49 50 51 52 54 55 53 53 55 55 50 44 45 48 44 44 48 49 47 47 50 49 46 46 45 45 48 49 50 48 43 37 31 29 29 29 28
49 50 53 56 58 61 71 75 75 77 73 74 80 78 75 75 75 75 76 81 84 82 82 84 86 88 91 88 85 84 83 83 80 74 65 55 50 54 60 58 52 51 54 51 47 49 53 53 52 52 53 55 56 56 55 53 52 51 50 52 52 50 49 49 51 51 49 51 49 45 47 50 51 52 52 53 53 49 45 46 50 51 49 47 46 49 50 51 52 49 45 39 32 27 28 30 32
53 49 51 56 60 62 67 70 69 71 67 68 76 77 75 72 68 70 75 80 83 82 83 84 83 86 88 88 85 84 86 83 77 75 68 57 51 53 60 61 53 52 57 55 48 46 49 52 53 51 51 54 56 55 53 51 50 50 50 53 50 45 44 44 45 44 47 51 48 41 43 51 55 57 57 58 57 51 46 45 49 50 48 46 47 48 49 49 48 48 47 41 34 29 29 30 32
54 47 49 53 58 60 62 67 67 68 66 66 71 73 75 73 64 66 74 79 82 81 82 83 84 85 84 84 84 84 86 82 77 77 71 59 51 50 58 62 54 51 56 54 49 47 45 47 50 50 48 51 54 51 49 50 50 50 51 49 42 36 37 38 38 40 44 46 46 44 46 52 56 58 57 57 57 52 49 48 47 47 46 47 47 44 45 46 45 47 46 41 35 32 31 31 31
53 50 50 52 56 55 55 60 60 62 65 66 68 67 71 73 66 64 71 78 80 79 81 82 84 86 83 81 84 85 84 80 77 74 68 59 51 49 55 59 54 51 55 54 50 49 47 46 49 49 47 48 50 47 46 50 50 50 48 41 33 30 32 35 35 38 43 44 44 45 49 53 53 54 55 55 52 48 49 51 47 44 45 47 45 43 46 45 43 45 43 37 36 36 36 33 31
43 46 47 50 56 54 51 50 51 55 59 63 66 62 64 69 69 65 67 76 79 78 80 79 81 87 85 82 86 86 81 80 78 70 64 60 52 49 54 56 52 52 55 52 49 47 46 49 50 48 46 46 45 43 44 48 48 47 42 34 31 32 35 38 39 38 41 44 44 44 48 54 55 54 55 53 47 45 46 46 44 43 44 46 46 47 51 48 44 47 45 40 41 42 39 33 31
34 40 41 43 47 49 48 46 48 52 54 60 63 63 64 66 67 65 66 73 77 77 80 79 80 85 85 84 86 85 80 86 88 77 68 64 53 47 52 54 51 53 54 50 47 43 42 47 48 44 42 42 39 37 40 43 43 42 38 34 36 40 42 45 47 42 40 44 46 46 48 52 55 55 54 51 46 46 45 43 45 46 45 48 49 50 52 52 50 50 48 47 49 48 43 40 38
33 40 42 43 43 44 45 45 46 50 54 60 64 64 63 65 68 66 66 73 76 77 79 81 79 80 83 83 84 86 85 86 90 87 76 68 56 45 48 53 50 50 53 48 45 41 38 41 43 40 38 38 36 35 39 41 41 41 39 40 45 48 50 53 54 47 39 40 44 47 48 50 53 52 51 50 48 48 45 44 47 47 49 52 51 50 51 49 49 51 52 51 52 52 49 50 49
36 43 44 45 46 45 46 45 43 48 55 58 61 62 59 62 67 68 67 69 72 75 78 80 80 78 79 82 84 88 88 80 82 91 83 69 60 48 45 50 48 48 51 47 44 40 36 37 39 39 38 37 37 37 40 43 43 44 43 47 55 57 56 58 59 54 42 38 41 43 45 48 53 55 53 51 50 50 48 48 49 48 51 54 49 48 50 47 46 50 51 47 48 50 49 51 51
33 40 42 43 46 47 49 49 43 49 57 55 57 61 60 59 62 67 68 66 68 73 76 78 79 80 78 82 85 86 87 83 83 91 85 71 65 55 48 48 47 47 50 48 44 40 37 36 36 39 40 40 40 39 42 45 47 50 52 57 62 61 59 60 58 56 48 41 40 39 40 45 52 58 59 55 52 52 51 51 52 48 49 50 46 44 45 47 49 49 46 41 44 46 47 51 50
23 27 29 31 39 42 46 50 48 54 58 54 56 62 61 59 58 63 68 68 67 68 75 79 79 81 80 81 84 83 82 85 89 90 84 75 67 59 50 47 46 46 49 49 44 41 40 36 33 35 37 37 41 41 43 48 52 58 61 64 68 63 61 61 56 54 50 43 39 37 37 40 45 51 54 53 50 51 51 49 49 46 44 45 45 41 39 42 46 46 41 41 46 46 47 52 50
20 21 19 22 33 38 41 46 49 62 65 55 59 68 64 57 53 56 63 68 69 67 72 79 80 81 82 81 81 80 79 83 89 89 83 74 66 62 54 47 46 45 46 50 47 43 43 38 32 34 33 32 37 40 43 49 54 59 58 58 63 61 58 59 54 51 51 46 39 37 36 36 39 43 45 47 46 47 49 46 44 45 42 42 41 38 35 36 39 42 39 38 44 47 45 48 51
21 19 14 15 24 33 42 46 53 73 76 57 59 69 61 49 44 49 56 60 64 68 69 74 80 81 80 81 79 79 81 82 84 85 81 75 68 65 59 48 44 43 44 49 49 46 47 42 34 33 32 29 33 37 40 47 52 58 58 54 57 58 56 57 54 51 51 47 42 39 37 36 38 40 41 43 44 43 44 41 40 41 40 38 37 36 34 34 36 40 40 38 42 46 44 45 52
17 15 12 11 19 33 43 43 52 71 70 55 54 58 51 43 39 45 53 54 57 62 64 67 75 80 80 80 79 80 81 79 82 84 83 80 72 65 61 50 44 43 42 48 51 48 50 46 37 34 32 27 30 32 37 46 51 56 63 63 63 64 62 61 57 52 48 45 43 42 38 36 38 41 40 41 41 40 40 39 38 39 39 35 35 37 38 39 39 39 40 42 43 44 44 45 52
12 11 11 11 19 37 44 40 46 50 48 50 52 53 54 47 39 44 51 55 58 58 58 62 67 75 79 81 80 79 79 77 79 85 85 82 75 67 62 53 46 45 44 47 50 49 51 50 39 35 33 28 29 30 35 45 50 55 63 66 67 68 66 63 59 53 47 45 44 42 38 36 37 40 41 41 41 40 40 40 38 39 39 36 36 39 39 42 44 43 44 45 42 42 45 45 46
10 10 11 15 24 37 38 37 43 38 39 54 55 55 63 53 37 41 49 52 56 54 53 57 61 67 73 78 81 79 78 75 76 83 84 81 76 69 66 59 50 47 45 46 49 50 53 53 44 37 34 30 28 30 36 44 50 54 59 60 60 63 63 60 57 53 49 47 44 41 38 37 38 40 41 43 44 41 40 42 41 39 39 38 40 41 41 44 48 48 47 47 44 43 44 42 41
11 10 10 17 27 33 32 35 41 37 36 44 44 48 59 53 36 37 46 47 48 50 51 54 57 61 65 72 80 80 77 74 75 81 83 80 76 71 70 67 57 48 45 46 48 50 54 56 49 40 35 32 29 29 34 42 49 50 53 55 53 55 58 56 56 56 53 50 47 45 43 41 43 43 42 44 45 42 41 42 41 39 40 42 43 43 42 45 48 49 48 47 45 44 42 40 42
11 11 10 11 17 25 33 39 38 35 32 26 25 33 45 49 41 37 42 45 46 50 53 55 57 60 63 67 75 81 78 74 74 79 84 84 79 76 75 72 64 52 46 46 46 49 54 56 54 45 36 33 32 30 31 36 41 43 47 51 49 51 55 55 57 60 58 54 52 50 50 48 48 48 46 45 43 41 41 40 39 39 40 42 44 43 44 47 49 50 48 45 43 43 42 41 42
11 12 12 9 9 12 21 27 21 24 34 33 30 35 43 49 46 42 45 48 50 53 52 53 54 56 62 66 71 79 79 75 74 76 83 86 82 79 77 76 70 57 47 45 44 46 51 54 55 50 39 33 33 33 32 32 34 36 40 46 47 48 51 55 59 62 58 54 54 53 51 49 50 50 47 44 42 41 41 41 41 42 41 42 43 43 44 46 49 51 48 45 44 45 45 43 41
10 12 12 11 12 11 17 29 25 25 43 50 44 45 53 55 48 45 48 47 49 54 56 56 54 53 58 63 67 76 79 76 74 74 80 86 83 78 75 75 72 62 50 45 42 42 47 51 53 53 43 34 32 33 34 32 30 32 35 41 46 47 50 55 59 62 59 53 52 54 52 49 49 48 45 43 43 43 43 43 43 44 44 45 45 46 47 47 49 51 51 51 50 47 45 44 43
11 13 12 14 21 25 34 46 41 37 50 59 54 49 54 59 56 55 54 50 48 52 58 61 59 57 58 61 65 72 78 78 75 73 75 81 82 77 73 73 71 65 55 47 43 41 43 47 49 52 48 38 32 34 36 31 27 29 32 38 45 47 50 55 57 59 58 52 50 51 50 48 49 51 49 45 43 44 45 45 44 45 47 46 46 48 48 46 46 47 48 51 50 47 47 48 47
19 20 16 17 26 33 41 44 39 39 52 65 62 51 52 59 61 61 59 56 54 55 59 63 66 64 60 59 65 70 76 78 76 72 72 77 82 78 74 73 71 68 61 51 45 41 42 44 46 49 49 42 34 34 36 31 24 26 31 36 42 46 50 55 55 56 55 52 50 50 48 46 46 50 51 49 49 50 50 47 43 43 44 44 43 43 42 39 39 40 40 40 40 43 46 47 46
22 24 23 25 27 30 33 35 34 35 49 67 65 53 55 60 59 59 58 58 59 57 57 60 65 69 63 57 61 70 76 79 77 73 71 74 81 80 75 73 74 73 66 55 47 43 42 42 44 48 48 43 38 34 37 34 25 23 29 33 39 44 49 53 53 52 53 52 49 48 48 47 45 45 46 49 52 53 54 51 46 43 43 42 40 39 36 35 36 38 39 38 38 40 42 43 44
21 24 29 31 30 30 31 33 32 32 43 57 57 53 59 62 59 57 56 60 61 57 55 57 60 66 65 58 61 71 77 79 78 75 72 76 83 84 79 74 74 76 71 59 48 43 44 45 45 47 47 44 41 37 38 38 29 23 27 32 35 39 44 48 51 51 51 51 49 45 46 49 48 46 45 48 50 50 52 52 48 46 45 43 41 39 37 36 37 38 40 40 40 40 41 42 41
20 24 28 31 32 32 31 35 40 45 50 48 48 55 58 56 58 58 57 60 61 57 57 58 58 60 62 59 63 73 78 80 81 77 73 75 80 82 81 77 74 76 75 64 52 46 47 50 48 47 46 44 42 39 38 40 36 27 25 29 32 36 39 40 45 48 48 49 49 45 45 49 51 51 52 53 51 50 50 48 46 46 46 46 45 43 43 44 44 43 43 43 42 41 42 41 41
20 23 26 28 32 34 34 40 47 55 61 53 49 56 53 53 62 63 61 60 58 59 61 61 60 60 59 59 64 73 78 80 83 82 77 75 75 75 79 80 76 77 78 71 62 54 52 54 53 50 49 47 45 42 39 40 41 36 31 30 31 35 38 36 37 41 43 45 47 48 48 50 52 52 53 54 56 56 53 47 44 45 45 46 47 47 49 52 53 50 47 46 44 43 44 45 48
24 27 29 27 31 35 36 41 44 53 66 61 56 57 57 64 72 66 60 57 56 61 65 66 67 66 64 62 64 71 76 79 82 82 80 77 74 70 73 79 79 78 78 73 68 61 56 58 59 56 53 51 49 46 42 39 40 41 39 37 37 37 38 37 36 36 38 40 43 47 49 51 52 52 50 50 54 58 55 49 47 47 47 47 47 49 51 54 55 52 49 48 48 48 50 52 53
27 30 31 30 33 35 36 41 42 47 61 64 63 64 59 62 65 58 54 53 53 55 57 63 71 74 73 70 68 70 74 78 81 81 79 77 73 70 71 75 78 79 79 75 71 66 61 61 63 60 55 52 51 49 45 42 41 42 41 41 41 41 41 42 41 39 38 38 40 43 47 49 49 49 49 49 52 54 52 49 51 53 52 50 51 53 56 57 57 55 54 53 52 50 51 53 53
27 27 27 27 33 35 38 49 48 42 49 55 60 62 54 52 55 52 53 53 51 50 50 56 65 71 73 71 70 71 72 76 80 82 83 80 75 73 72 72 75 79 80 76 73 70 65 61 62 62 57 51 50 50 46 44 43 43 43 43 43 44 44 46 46 44 42 42 44 46 48 49 49 49 49 50 52 53 51 51 51 52 53 54 56 58 60 61 59 57 58 59 58 56 57 61 63
Wind_Speed
7 6 7 8 8 8 9 10 12 14 16 19 19 17 17 17 16 17 16 15 14 10 8 8 13 15 16 14 11 10 12 12 14 16 19 22 21 18 18 18 18 18 16 14 14 14 14 13 12 11 10 10 9 9 8 8 8 9 10 10 10 11 12 12 13 14 14 14 13 13 12 12 12 13 13 13 14 14 13 13 14 15 15 16 16 16 16 15 13 13 13 12 12 12 12 11 11
5 4 5 6 5 7 9 10 13 16 18 19 18 18 17 16 16 16 15 15 14 11 8 9 15 19 17 14 10 10 13 13 9 12 19 23 22 20 19 17 18 17 15 14 13 13 13 12 11 10 9 8 8 7 6 7 8 9 9 9 9 10 10 11 11 12 13 14 14 14 13 13 13 13 14 14 14 14 14 13 14 15 15 15 15 16 16 16 14 13 13 12 12 12 12 11 10
4 3 3 3 5 8 9 11 17 18 20 19 16 17 18 18 17 18 16 12 11 9 9 11 15 18 16 15 12 9 10 11 9 12 18 22 20 19 17 15 15 14 13 12 13 13 13 12 10 9 9 8 7 7 7 7 8 9 9 8 9 9 9 10 10 11 12 14 14 15 14 13 13 13 14 14 15 15 15 14 14 15 15 15 15 15 16 16 15 14 13 13 13 12 12 11 10
3 2 2 3 5 9 11 14 17 18 20 20 18 18 18 17 16 17 16 11 8 6 7 10 13 12 10 13 13 10 10 12 12 12 17 21 17 14 14 13 13 12 11 11 12 13 12 11 10 10 9 8 8 8 8 8 9 9 9 9 9 9 9 10 11 11 12 14 15 16 15 14 14 14 14 15 16 16 16 15 15 15 15 15 15 15 15 15 15 16 15 14 13 12 12 11 10
3 1 3 5 8 9 11 15 16 16 19 20 21 20 17 17 17 17 16 12 8 4 5 8 13 13 10 12 12 12 14 17 17 15 16 19 15 13 13 13 13 12 12 12 13 13 12 11 10 10 9 9 9 9 9 9 9 9 9 9 10 10 9 10 11 11 12 13 15 17 16 15 14 14 14 14 15 15 16 16 15 15 15 15 15 15 15 16 16 16 16 14 13 11 11 11 10
4 2 5 7 10 10 12 16 16 18 20 21 22 19 17 18 19 17 14 12 7 1 3 7 14 18 18 17 14 14 16 17 19 17 14 17 17 15 15 15 15 14 14 14 14 13 12 11 11 11 10 9 9 9 9 9 9 9 9 9 9 9 9 9 10 11 12 14 16 18 17 15 14 14 14 13 14 14 15 15 15 14 14 13 14 14 15 16 17 16 15 14 12 11 10 10 10
6 6 8 9 11 12 14 18 19 22 22 22 21 18 18 18 18 16 12 12 8 3 4 9 15 18 21 20 18 17 14 14 16 17 16 17 18 16 15 15 14 14 14 14 13 13 12 12 12 11 10 9 8 8 8 8 8 9 9 9 8 8 8 9 10 12 13 14 17 19 18 16 16 15 13 13 13 14 14 14 14 14 13 13 13 14 15 16 16 15 14 13 11 10 10 11 12
10 11 10 11 12 13 15 18 21 23 22 22 21 18 18 18 17 15 11 11 11 7 6 12 14 12 17 17 18 19 15 14 14 16 17 16 17 15 15 13 12 13 13 13 12 12 11 11 11 11 10 9 9 8 8 7 7 8 8 8 9 9 8 9 11 13 14 15 17 19 18 16 16 15 14 13 13 13 13 13 13 13 13 13 13 14 14 14 14 14 13 12 11 11 11 13 15
13 12 10 11 12 14 16 19 21 22 21 21 20 18 16 17 17 15 12 11 11 8 6 10 8 4 13 16 17 19 16 15 15 16 17 15 16 14 14 13 12 11 11 12 10 10 10 10 10 10 10 9 9 8 8 8 8 8 8 9 9 9 9 10 11 13 14 15 17 18 17 17 16 15 14 14 13 13 12 12 12 11 12 12 14 14 14 14 13 13 12 11 12 13 14 15 17
15 12 10 11 12 14 17 19 20 21 22 20 19 16 13 17 20 15 12 10 9 8 6 4 4 5 14 17 17 17 14 15 15 16 16 14 14 12 13 13 12 10 9 9 8 9 9 10 10 10 10 9 9 9 9 9 9 9 8 9 10 10 10 11 12 14 14 15 17 17 17 17 16 15 14 14 13 12 12 12 11 10 10 11 13 14 14 13 12 12 12 13 15 16 17 18 18
17 12 10 12 12 14 17 19 20 20 20 19 17 16 13 17 20 15 11 10 7 6 5 3 5 13 17 17 17 16 13 14 13 14 14 13 12 11 10 10 10 10 8 7 7 8 9 10 10 10 10 10 9 10 10 10 9 9 9 10 11 11 11 12 13 14 15 15 16 16 17 16 15 15 14 14 12 12 12 10 10 10 10 12 13 13 13 13 13 14 15 17 18 19 19 18 18
19 13 9 10 12 14 16 18 19 18 18 18 15 14 14 16 17 16 10 9 7 5 5 4 10 16 16 18 17 15 14 13 12 11 11 11 11 10 9 8 7 7 6 6 6 8 8 9 10 10 10 10 10 10 10 9 9 10 10 11 12 12 11 12 14 14 15 15 15 15 15 15 15 15 14 14 13 12 11 10 10 10 11 13 13 13 14 15 16 17 19 20 20 20 18 18 19
20 14 8 9 12 13 15 15 16 16 16 15 13 11 15 18 18 17 11 7 6 6 7 5 10 12 11 17 16 15 14 12 11 9 9 9 8 8 7 6 4 4 4 5 6 7 8 8 9 10 10 10 10 10 10 9 9 10 11 13 13 13 12 13 14 14 15 15 15 14 14 14 15 15 14 14 13 12 11 10 10 10 12 14 15 15 16 18 20 21 22 22 20 20 19 20 20
19 15 7 10 10 11 13 14 13 13 13 12 11 12 17 20 19 20 13 7 5 4 7 5 6 9 9 14 15 15 13 11 11 9 8 7 7 7 5 4 3 3 4 5 6 7 8 8 9 9 9 10 10 10 9 9 10 11 12 13 14 14 13 14 14 15 15 15 15 14 14 14 14 15 14 13 12 12 11 11 10 11 13 16 17 18 20 22 24 24 23 22 21 21 21 21 20
17 16 7 8 7 9 12 13 12 11 11 11 12 14 18 19 17 20 15 9 5 4 7 6 3 3 6 9 11 15 13 11 11 8 7 6 5 5 4 4 2 3 4 6 7 8 9 9 9 9 9 10 10 10 9 9 11 11 13 14 15 15 14 15 15 15 15 15 14 14 14 14 14 15 14 12 12 12 12 11 10 12 15 18 20 22 24 25 26 25 24 23 22 21 20 19 18
13 16 9 7 6 9 12 12 11 10 9 10 13 15 17 18 16 17 13 9 6 6 5 4 4 2 3 7 7 13 12 11 11 9 7 5 4 4 3 3 3 3 4 5 6 7 9 9 9 9 9 10 10 10 10 11 12 13 14 15 15 15 15 15 16 15 15 15 15 15 14 14 13 13 12 12 12 13 12 11 12 15 18 21 23 24 26 26 25 24 24 22 21 20 19 18 17
8 14 11 5 6 9 11 10 10 9 9 9 13 16 17 19 17 16 13 8 5 8 3 3 3 3 3 8 6 10 10 10 10 8 7 5 4 3 2 2 2 3 3 4 5 7 9 8 9 8 9 10 10 10 11 12 14 15 16 17 16 16 16 16 15 15 15 15 15 14 14 14 13 12 13 13 14 13 13 13 16 19 22 24 24 25 25 25 25 24 23 21 19 18 17 16 16
6 11 10 5 5 8 9 8 8 9 8 9 13 18 19 18 17 17 15 9 8 8 5 4 3 1 5 8 6 7 8 9 9 6 6 4 4 3 3 2 2 3 3 3 5 7 8 8 9 9 9 10 11 12 13 13 14 15 16 17 16 17 17 16 15 15 15 15 15 14 14 14 14 14 15 15 15 14 14 17 20 22 24 25 24 24 24 24 24 23 22 20 18 16 16 16 16
5 7 9 7 5 8 9 7 8 9 8 9 11 16 19 16 16 17 15 12 12 12 12 9 7 7 8 8 7 7 7 9 9 6 5 4 3 4 3 3 2 2 3 4 5 7 8 9 10 10 11 11 13 14 14 15 16 16 16 16 17 17 17 16 16 16 16 15 15 15 15 16 16 16 16 16 15 15 18 21 23 24 24 24 24 24 24 24 24 22 20 18 17 16 16 16 16
3 4 8 9 5 8 9 7 9 11 10 11 11 14 17 16 17 16 15 14 15 16 15 10 8 10 8 8 8 7 8 8 8 7 6 4 3 4 4 3 3 4 4 5 7 8 9 10 10 11 12 13 14 14 15 17 17 17 17 17 18 17 17 17 17 17 17 16 16 16 16 17 17 16 16 16 16 18 22 23 24 24 24 24 24 24 24 24 22 20 19 18 17 16 16 16 17
1 2 5 8 5 2 7 7 8 11 12 13 13 14 15 17 18 15 14 15 17 18 15 6 2 6 7 8 8 8 8 8 8 7 6 5 4 4 4 4 5 6 6 7 8 9 10 11 11 12 12 13 15 15 17 19 19 18 19 19 19 18 17 17 17 17 17 17 16 16 16 16 16 16 17 17 19 22 24 24 24 24 23 24 24 24 24 22 21 19 18 18 17 16 16 16 17
4 2 4 7 7 4 4 5 7 10 10 12 14 13 16 20 18 14 12 13 15 16 15 9 4 2 6 7 7 8 9 10 10 8 6 5 5 4 4 4 6 7 8 8 9 10 10 11 13 13 13 14 16 18 19 20 21 20 21 21 20 19 17 17 17 17 17 16 16 15 15 15 15 16 18 19 22 24 25 24 24 24 24 24 24 24 23 21 19 18 17 17 17 16 16 16 16
7 2 4 5 7 5 2 5 7 10 10 11 13 14 18 21 17 15 14 10 11 12 13 10 8 5 7 7 7 8 10 12 11 8 6 5 5 4 4 5 7 9 9 9 10 10 11 12 13 13 13 15 17 19 20 22 22 22 22 21 20 19 18 18 18 17 17 16 15 15 15 14 15 17 20 23 24 24 24 23 23 23 23 23 23 23 21 19 18 16 16 17 16 16 16 16 16
5 3 4 6 6 4 2 7 9 11 11 12 12 14 20 20 16 16 15 12 11 12 10 6 7 9 10 9 8 8 11 12 9 8 6 5 5 4 4 6 8 10 9 10 11 11 12 14 14 13 14 16 19 20 21 23 23 23 22 22 22 20 20 19 18 17 16 16 16 16 16 16 17 20 23 25 25 24 23 23 23 23 23 22 22 21 20 18 16 15 15 16 16 16 16 15 15
3 4 6 7 7 5 3 7 11 12 13 13 12 15 21 19 16 16 16 15 12 11 8 4 9 13 11 11 8 8 11 9 6 6 4 4 5 5 5 7 9 11 11 10 12 12 13 15 15 15 16 18 20 21 22 23 23 23 23 23 23 21 20 19 18 17 16 16 17 17 17 18 20 22 24 25 25 24 23 22 22 22 21 21 21 20 19 17 16 16 16 16 16 16 16 15 15
3 6 7 7 7 5 4 8 12 14 15 14 14 16 19 17 16 17 15 14 12 11 8 5 10 14 12 11 9 7 7 5 3 3 4 5 6 6 6 8 10 11 12 12 12 13 14 16 16 17 18 19 20 22 22 22 22 22 23 22 22 21 20 18 17 16 16 17 17 18 19 20 22 24 24 24 23 22 22 21 20 20 20 19 19 19 18 16 15 15 16 16 16 15 15 15 15
7 10 9 7 7 5 4 11 14 16 16 17 15 15 18 17 15 15 13 11 12 13 9 6 10 13 12 12 11 7 5 4 2 3 4 5 7 7 7 8 9 11 12 13 12 13 14 16 17 19 20 20 21 23 22 22 21 22 22 21 20 19 18 17 16 16 16 17 17 18 19 21 23 24 24 23 22 21 20 19 19 19 19 18 18 16 15 15 13 13 14 16 15 14 14 13 14
8 9 8 6 7 6 4 13 15 18 19 18 16 16 20 18 16 15 13 11 14 14 9 6 9 12 14 15 13 10 8 8 6 4 6 6 7 8 7 8 9 10 12 13 13 13 14 16 18 20 21 21 22 22 22 22 21 21 21 20 19 19 18 18 16 15 16 16 16 17 18 20 21 22 22 22 20 19 18 17 18 18 18 17 16 15 15 14 13 13 13 15 15 14 14 13 12
7 8 7 6 9 8 5 11 17 20 20 19 18 20 21 19 19 17 14 13 15 12 7 6 10 12 14 15 14 12 10 10 7 5 6 6 7 8 8 8 9 9 11 12 13 13 14 16 18 19 20 21 22 22 22 22 22 21 20 20 19 18 18 17 16 15 15 16 17 17 18 19 20 20 20 19 18 17 16 16 16 17 16 16 15 15 14 13 13 13 13 14 14 14 13 12 11
5 7 7 8 11 12 10 11 18 20 18 20 20 22 21 21 21 19 16 16 17 13 8 10 13 15 16 13 12 12 10 10 7 5 5 6 7 8 8 8 9 9 10 11 12 13 14 15 17 18 19 21 22 22 21 21 21 20 19 18 18 17 17 16 16 15 16 16 16 18 19 19 19 19 18 17 17 16 16 16 15 15 15 15 15 14 13 13 13 12 13 13 14 14 14 13 11
3 4 6 8 9 11 12 13 18 19 18 18 18 20 22 23 22 20 18 19 17 14 13 14 14 17 18 14 12 12 10 8 8 6 5 7 7 9 9 8 9 9 9 10 11 13 14 15 16 18 19 20 20 20 20 20 19 19 18 17 16 16 16 16 15 15 15 14 15 18 19 18 18 17 17 16 15 15 15 15 15 14 15 15 14 13 12 13 13 12 12 12 13 13 14 13 12
3 5 4 5 6 9 11 12 14 16 17 16 15 16 21 22 22 21 21 22 20 17 17 18 16 16 17 14 12 11 10 9 8 7 6 9 9 9 10 9 9 9 9 9 10 12 14 15 15 17 19 19 19 19 20 19 19 18 17 16 15 15 15 15 15 14 14 13 15 17 18 17 17 16 16 15 14 14 14 14 14 14 14 14 14 12 12 13 12 12 12 11 12 12 13 13 12
6 5 3 3 5 8 11 11 12 13 13 14 14 14 19 21 21 22 22 25 23 19 20 20 18 17 15 14 12 10 11 10 9 8 7 10 11 10 11 10 9 9 9 9 9 11 13 14 15 15 17 18 18 19 19 19 19 17 16 16 15 15 15 14 14 14 14 14 15 17 17 17 16 16 15 15 14 13 13 13 13 14 14 14 13 13 12 12 12 11 11 11 11 10 10 11 11
11 8 4 2 4 7 9 10 11 13 13 14 13 14 17 19 20 22 22 26 24 21 22 22 19 19 17 14 12 11 12 10 9 11 9 9 11 11 11 11 11 10 10 9 9 10 11 13 15 14 15 16 17 17 18 18 18 17 16 15 15 15 15 14 14 14 14 14 15 16 16 16 16 16 15 14 14 13 13 12 12 13 13 13 13 13 12 12 11 10 10 11 10 9 8 9 10
13 12 8 6 6 5 7 7 8 10 12 15 16 16 16 17 19 21 21 25 26 24 24 22 19 20 18 15 14 13 12 10 10 11 10 9 11 12 12 12 12 11 11 10 10 10 11 13 14 14 14 14 15 16 17 17 17 16 16 15 15 14 14 13 13 13 13 14 14 14 14 14 14 15 15 14 13 12 12 12 13 13 13 13 13 12 11 10 10 9 9 9 9 8 8 8 7
13 12 8 7 8 7 6 5 6 7 8 11 15 16 16 16 18 21 22 25 28 27 25 22 20 20 19 17 15 14 13 12 12 12 10 10 11 12 13 12 12 12 11 10 10 10 10 11 13 15 15 14 14 15 15 15 15 15 15 15 15 14 13 12 12 12 12 13 14 14 13 13 13 14 14 14 13 11 11 12 11 11 12 12 12 12 11 10 9 9 8 8 7 7 7 7 7
14 13 8 7 6 6 6 6 6 7 6 7 9 12 14 15 16 19 22 25 27 27 26 22 21 21 20 19 16 16 15 13 14 13 10 10 10 11 14 13 13 13 12 11 10 10 11 11 12 14 15 14 14 14 13 13 13 14 15 14 13 12 11 11 10 10 12 13 14 15 14 14 13 14 14 13 12 10 11 11 10 10 10 11 11 11 11 10 10 9 8 7 7 7 6 6 5
13 16 13 10 9 5 5 6 5 6 6 7 9 10 11 12 14 18 21 24 25 26 27 25 23 22 21 20 18 17 16 12 12 15 12 10 9 11 14 13 13 13 12 11 10 10 11 12 13 13 14 14 13 13 12 12 13 13 13 12 11 11 11 11 10 10 11 13 14 15 15 15 14 14 13 13 12 11 11 10 10 11 10 9 9 10 11 10 10 10 9 8 6 6 5 4 3
10 15 14 12 12 9 8 9 6 6 8 6 8 9 8 9 11 16 20 22 23 25 28 27 24 23 23 22 20 19 16 13 13 15 14 12 10 11 13 13 13 13 12 12 11 11 12 12 14 14 14 14 13 13 13 13 12 12 12 11 10 10 11 12 11 11 11 12 13 15 16 16 15 14 13 13 12 12 11 10 11 10 10 9 8 9 10 9 8 9 9 7 6 5 4 3 3
4 7 8 9 12 13 11 12 9 7 8 5 4 6 7 7 8 12 18 21 23 25 29 30 27 25 25 24 22 20 17 15 15 16 15 14 11 11 13 14 13 13 14 13 12 11 11 13 14 14 14 14 13 14 14 13 12 12 12 12 11 10 11 11 12 12 12 12 13 14 15 15 14 13 12 12 11 11 11 11 11 10 9 8 8 9 9 8 9 9 9 7 5 5 5 3 2
3 5 5 7 11 14 10 10 13 11 8 6 5 5 7 6 4 7 13 19 23 25 29 32 31 27 27 26 25 22 19 16 16 16 16 15 12 11 12 14 14 13 13 13 12 11 10 12 14 14 14 13 14 14 14 13 13 12 12 12 12 11 11 11 11 11 11 12 12 13 13 13 13 12 12 12 11 11 10 11 11 10 9 8 7 8 8 8 9 8 8 7 5 5 5 3 2
8 6 6 9 9 12 10 11 17 15 11 10 8 5 5 5 4 4 9 14 19 25 29 33 33 31 29 29 27 24 21 18 17 16 16 16 14 12 12 14 14 14 13 13 13 11 10 11 13 14 14 13 13 14 13 13 12 11 10 9 9 9 8 9 9 9 9 10 11 12 12 13 12 12 12 12 11 11 11 11 10 10 9 8 7 7 7 7 7 6 7 7 6 5 5 4 3
9 6 7 9 10 11 16 15 17 15 8 9 9 6 4 5 6 5 8 8 11 20 28 33 34 33 32 30 29 27 24 21 19 17 18 18 16 13 13 15 14 14 14 14 15 14 12 12 12 14 14 13 13 13 13 12 12 11 9 8 8 8 8 9 9 10 10 10 11 11 12 12 12 12 11 12 11 11 11 10 9 8 8 7 7 6 5 6 5 6 6 6 6 6 6 5 4
3 3 6 7 6 12 19 14 12 9 5 7 9 7 6 8 5 4 8 8 8 15 23 30 34 35 34 32 31 29 27 24 21 19 19 19 18 15 13 15 15 15 15 15 16 15 13 13 13 14 14 14 14 13 12 12 12 12 11 10 10 10 10 11 10 11 11 10 11 11 12 12 12 12 12 12 11 11 11 11 10 9 8 7 6 6 5 5 5 6 6 6 6 6 6 5 5
3 1 3 2 3 12 15 12 11 9 7 10 12 10 7 7 5 5 8 9 10 11 16 25 32 34 35 34 33 32 29 26 22 21 21 20 19 16 13 14 15 16 16 16 16 16 15 14 14 15 15 14 14 13 13 13 13 13 13 12 12 12 12 12 11 11 11 10 10 11 11 12 12 12 12 12 11 12 11 11 10 10 9 8 7 6 6 6 6 5 5 6 6 5 5 5 5
7 4 2 2 6 10 11 10 14 13 9 10 12 13 9 6 8 9 9 8 8 7 9 16 25 31 33 34 35 34 31 28 24 21 21 20 19 17 14 14 16 18 17 16 17 17 17 16 15 15 15 14 14 14 14 14 14 14 14 12 12 12 13 12 12 12 11 10 10 10 11 12 12 12 12 11 12 12 11 11 11 10 9 8 8 7 6 7 6 5 5 6 6 6 5 5 5
5 6 7 6 6 10 13 15 17 12 5 8 8 11 9 4 6 8 8 7 6 4 5 10 18 26 30 32 34 35 34 30 26 23 21 20 19 18 17 15 16 19 19 18 18 18 18 17 16 15 16 15 14 14 14 14 14 14 14 13 12 12 12 12 11 10 10 11 11 10 11 11 11 11 12 11 12 12 11 11 10 9 9 9 9 8 7 7 6 6 7 7 7 7 7 6 5
4 4 5 8 9 8 7 9 12 6 4 5 4 9 12 7 5 6 7 7 5 4 5 6 12 19 26 31 34 36 35 32 28 24 21 20 20 20 19 18 17 19 20 19 18 19 19 18 17 16 17 16 15 15 15 14 14 14 14 14 12 12 12 11 10 9 9 10 11 10 10 10 10 11 11 11 11 11 10 10 10 9 9 9 9 8 8 8 7 7 8 8 8 8 8 8 6
8 6 3 3 3 3 2 1 5 3 2 2 2 5 9 9 11 13 12 9 7 7 6 5 8 13 19 26 33 37 36 34 30 26 23 21 21 21 21 20 18 19 21 20 18 19 19 19 18 17 17 16 15 15 15 14 15 14 15 14 13 12 12 11 10 10 9 10 10 9 9 9 9 9 9 9 9 9 9 10 9 9 9 9 9 8 8 7 7 8 8 8 8 9 8 7 6
7 7 5 4 2 2 2 2 0 2 2 1 2 3 3 4 9 10 10 10 10 9 7 6 6 10 13 17 27 36 37 35 32 28 25 22 21 22 22 21 20 19 20 21 19 18 19 19 19 18 17 17 16 15 14 14 14 15 15 15 14 13 12 11 11 11 11 10 9 9 10 10 9 9 8 8 8 8 9 9 9 8 8 8 8 8 7 7 7 7 8 7 7 7 7 6 6
2 2 4 6 4 3 2 2 1 1 2 3 4 3 2 3 5 5 6 8 10 9 7 4 4 8 11 12 20 32 38 37 34 31 27 24 21 22 23 23 21 19 20 21 20 19 19 19 19 18 18 17 17 15 13 12 13 15 16 16 15 14 13 12 11 11 11 11 10 11 10 9 9 9 9 9 9 9 9 9 8 8 8 8 8 7 7 7 7 7 8 8 7 7 6 6 7
6 4 2 5 5 2 1 2 2 3 2 2 4 4 2 3 3 5 7 8 8 9 8 6 6 8 11 13 18 28 36 38 35 32 29 25 22 21 23 23 21 19 20 21 21 19 20 20 19 18 18 18 17 15 13 11 12 14 17 17 16 15 14 14 13 12 12 12 11 11 10 10 10 10 9 9 9 9 9 9 8 8 8 7 7 7 7 7 7 7 7 7 7 7 7 7 7
5 4 5 7 3 2 1 2 1 0 1 3 6 6 4 4 3 5 7 8 8 8 9 8 6 7 10 13 18 26 34 37 35 33 30 26 24 22 22 22 22 21 20 20 20 19 19 19 19 18 18 18 18 17 15 12 12 13 16 17 17 16 15 14 13 12 12 12 12 11 11 11 11 10 10 10 10 10 10 9 9 8 8 7 7 7 7 7 7 7 7 7 8 8 8 9 8
3 3 3 4 4 2 2 1 0 2 1 2 6 8 8 6 3 5 6 6 6 7 7 5 4 4 6 9 15 24 32 36 35 33 32 28 26 24 21 22 22 22 21 19 18 17 17 19 19 19 18 18 18 17 16 15 13 13 14 17 17 16 15 14 14 13 13 13 13 12 12 12 11 11 11 11 11 10 10 10 10 9 8 8 8 7 7 7 7 7 7 8 8 8 8 9 9
3 2 2 2 4 2 2 2 1 1 0 1 4 9 9 6 4 4 5 4 5 6 6 6 5 3 4 6 10 20 30 37 36 33 32 30 27 25 22 21 22 23 23 21 18 16 16 17 19 19 18 18 17 17 17 17 15 14 14 16 16 16 15 15 15 15 15 14 13 13 13 12 12 12 12 11 11 10 10 10 10 9 9 8 8 8 8 8 8 7 8 8 8 7 8 8 8
5 4 2 2 2 3 4 3 2 2 0 1 2 4 5 6 6 5 4 4 5 6 6 7 8 7 3 5 8 15 25 34 36 34 33 31 28 26 24 22 21 22 24 23 19 16 16 16 19 20 19 18 19 19 18 18 17 16 16 16 16 16 16 16 16 16 16 15 14 13 13 13 12 12 12 12 11 11 11 10 10 10 9 9 9 9 9 9 9 8 8 8 7 7 7 7 7
10 9 6 4 3 3 4 3 3 3 2 2 2 2 3 5 7 6 5 5 7 7 8 7 7 8 7 7 9 13 19 27 34 36 35 34 32 28 26 26 23 21 23 25 22 18 17 17 19 21 21 20 20 20 19 19 18 18 17 17 17 17 16 17 17 16 16 15 15 14 14 13 13 12 12 12 12 12 11 11 10 10 10 10 9 9 9 9 9 8 7 7 7 8 7 7 7
9 7 4 3 4 5 4 2 3 4 3 3 3 2 5 6 7 6 5 6 7 7 7 6 6 7 8 9 10 13 16 21 29 36 38 37 36 33 30 28 27 24 23 25 25 22 20 19 20 22 23 21 20 20 20 19 19 19 18 17 17 17 17 18 18 17 16 16 15 14 14 14 13 13 13 13 12 12 12 12 12 11 11 10 10 10 9 9 9 8 7 7 8 8 8 7 8
Wind_Direction
64 62 69 75 80 92 106 108 99 99 102 101 102 103 103 105 101 92 91 97 97 115 141 148 151 150 158 161 147 123 115 130 139 148 152 149 148 147 142 136 133 134 137 141 143 144 142 143 141 135 132 132 132 130 128 126 128 131 132 131 131 131 130 131 131 131 133 136 142 143 138 133 131 130 129 128 126 123 123 125 124 119 118 117 118 120 119 116 113 111 110 109 111 114 115 115 115
71 74 72 74 82 103 113 110 104 108 111 106 107 107 107 108 105 102 101 107 104 110 128 135 152 160 166 167 155 129 122 129 132 148 151 147 146 143 140 135 132 132 135 140 143 145 144 145 144 139 137 137 139 139 140 134 131 132 133 132 131 131 131 130 128 130 133 137 142 144 141 136 131 127 128 128 124 121 121 123 123 120 117 114 113 115 115 114 112 111 112 111 112 115 115 116 115
49 65 85 89 99 114 112 113 116 118 116 111 113 114 110 108 113 115 107 108 111 122 131 129 150 161 164 168 168 152 137 140 144 158 154 147 147 143 141 140 137 140 144 147 149 150 150 152 150 147 142 141 146 148 148 143 139 138 136 134 132 132 133 133 132 135 137 139 143 145 142 136 130 127 128 127 123 118 116 118 119 118 116 111 108 111 111 112 114 114 114 114 114 117 118 118 117
20 44 124 115 112 124 115 116 123 122 117 116 119 119 118 120 126 121 113 117 128 142 135 146 159 153 174 181 171 164 152 144 147 162 152 142 148 147 147 149 145 149 154 155 156 156 156 157 157 154 146 144 148 148 150 151 148 144 140 138 136 136 136 139 142 144 143 142 144 145 141 136 131 130 130 128 123 118 114 113 114 113 112 108 106 110 113 114 117 117 116 117 118 119 120 120 119
356 36 135 123 122 132 122 118 122 121 121 122 121 120 123 126 122 117 120 134 159 163 120 161 155 132 156 169 161 156 141 137 144 157 149 139 145 150 149 147 143 148 153 154 157 156 155 157 162 160 153 149 147 146 150 153 152 149 144 141 140 141 139 140 144 147 147 143 142 143 140 136 134 133 132 130 126 120 115 112 111 109 106 105 104 108 114 117 119 120 119 118 120 122 122 122 122
17 83 133 130 124 126 121 120 118 118 121 122 121 123 123 116 114 115 124 138 161 142 80 146 137 131 135 130 135 137 129 136 143 147 144 134 135 139 137 132 133 139 144 148 151 151 152 157 165 166 160 152 149 149 150 151 152 152 146 145 147 147 144 140 143 148 148 145 143 142 141 139 138 137 135 131 125 119 114 111 108 106 104 104 104 107 113 118 120 121 120 120 122 124 125 124 124
62 86 117 125 121 118 119 121 120 119 122 124 124 127 125 120 122 125 131 140 148 127 109 133 133 133 126 124 131 125 126 140 141 139 137 131 129 129 126 124 126 131 137 142 146 148 152 159 166 167 164 158 157 157 155 153 153 154 151 152 155 153 147 141 144 148 149 148 147 143 141 142 143 141 136 129 122 116 111 107 105 104 103 103 105 108 114 118 120 121 119 120 122 124 126 126 126
79 81 102 120 118 117 120 123 126 126 128 132 131 136 136 130 133 139 140 143 153 150 129 132 141 135 120 131 133 126 136 143 139 134 132 130 126 125 123 121 122 128 135 139 145 149 155 161 166 167 167 166 166 168 167 167 165 164 160 157 158 157 149 144 147 150 151 152 150 144 141 143 144 142 136 127 121 115 108 102 100 101 102 104 108 112 116 118 118 118 116 116 119 122 124 126 128
69 74 95 117 116 117 123 125 131 133 135 138 139 150 143 128 133 148 153 149 156 149 132 141 166 168 131 139 131 130 142 140 139 134 133 132 127 129 128 126 125 131 140 144 152 155 162 169 171 172 173 174 176 181 181 181 179 175 169 163 163 161 153 148 151 151 152 153 150 145 143 145 145 145 137 127 120 114 107 100 97 100 104 106 110 115 117 117 115 113 110 113 117 120 123 125 125
50 59 85 112 119 118 124 130 136 138 141 143 147 153 141 132 132 143 162 155 158 151 147 177 209 172 142 138 128 131 141 137 138 135 134 129 126 131 132 134 133 138 146 151 160 164 174 179 181 183 182 185 186 189 189 188 185 181 174 171 170 166 159 154 155 154 152 151 149 147 146 147 147 146 137 127 119 114 107 100 98 101 106 109 112 116 116 115 113 111 110 114 118 121 122 122 119
37 44 75 106 119 120 128 135 139 142 146 148 152 152 142 144 132 130 161 154 169 188 166 210 171 151 141 132 127 132 138 134 134 131 130 127 128 133 133 135 135 143 153 159 169 174 183 186 189 188 188 189 188 190 189 187 186 183 180 178 175 168 163 161 160 157 151 148 148 149 149 149 147 144 137 128 120 115 109 102 101 103 108 113 115 114 112 111 112 113 115 118 119 121 121 119 114
34 40 67 99 114 122 132 138 140 146 152 152 155 152 141 147 133 129 157 152 165 183 147 165 151 148 142 134 134 137 141 135 132 129 125 128 131 131 132 132 135 145 153 159 170 178 182 185 189 187 187 187 184 188 187 185 186 186 183 180 176 170 167 165 163 157 150 145 146 148 149 148 146 141 135 130 125 119 113 108 106 107 110 112 112 109 108 109 113 116 118 120 120 122 121 117 114
32 33 55 99 113 121 133 139 140 148 155 156 156 151 142 146 140 135 160 160 133 118 118 141 152 157 151 137 136 139 142 135 132 131 126 128 125 124 125 126 138 148 156 161 165 177 180 181 187 184 183 185 182 186 186 183 186 189 183 177 175 172 169 166 162 157 150 146 147 149 149 148 144 139 134 131 128 122 117 116 113 111 111 110 109 109 110 112 115 117 119 120 121 121 120 118 117
30 23 52 106 115 124 137 142 140 147 156 160 157 150 144 147 143 138 156 154 104 77 101 109 147 170 164 143 143 145 145 138 133 132 132 128 118 119 118 125 143 141 154 160 165 178 181 181 183 181 180 184 180 181 183 179 184 186 180 175 173 172 168 164 160 158 153 150 151 151 149 147 143 137 133 130 127 124 122 122 117 113 112 111 111 112 113 115 115 116 116 117 118 119 119 119 118
28 18 53 107 111 132 142 145 144 149 153 158 157 152 146 149 148 136 143 152 135 112 101 104 122 194 189 163 152 148 149 143 135 134 136 130 119 120 118 125 127 123 142 156 169 177 180 181 178 180 183 182 176 177 177 176 179 179 177 173 171 170 165 160 159 158 155 152 151 150 148 145 140 135 131 129 128 128 126 123 118 116 114 112 112 114 115 116 116 115 115 115 116 117 118 118 116
31 22 47 99 105 134 144 144 146 147 152 161 159 155 146 145 145 130 140 176 159 123 91 96 97 0 205 178 153 143 147 139 131 133 134 129 119 109 113 124 116 113 138 156 170 174 177 180 174 176 184 181 172 172 173 171 173 170 169 166 166 166 161 157 155 154 153 151 150 148 146 143 138 136 135 133 133 132 129 125 121 119 116 114 114 116 118 118 117 117 117 117 116 116 117 117 117
30 23 34 78 106 133 145 143 146 146 152 161 157 156 147 135 130 128 151 184 121 105 88 93 100 351 175 165 149 135 141 129 125 134 129 123 116 95 100 119 109 109 136 161 167 170 175 181 175 170 175 177 167 164 165 163 165 164 162 160 160 160 155 152 150 149 150 149 148 146 144 142 142 144 141 138 137 135 130 126 124 122 118 116 117 118 118 118 117 117 116 115 114 112 112 113 113
21 18 32 69 122 144 149 150 150 150 153 157 163 159 145 133 131 140 160 162 118 123 147 166 174 210 163 161 148 132 132 122 125 133 122 117 110 96 91 87 100 116 127 151 166 169 173 179 174 166 164 166 161 158 156 152 156 158 156 155 154 152 148 146 145 146 147 147 145 143 143 144 146 146 142 138 137 134 129 128 126 123 120 119 119 119 118 118 116 115 113 111 108 105 104 105 106
16 14 26 63 137 168 165 174 154 149 150 143 161 151 134 137 142 147 160 158 150 161 172 186 183 163 167 166 150 138 127 124 133 136 128 126 111 101 92 81 101 121 126 139 154 161 165 168 166 162 160 159 158 157 153 149 151 152 150 149 147 145 143 142 143 143 144 145 144 144 144 144 145 142 137 136 135 132 129 129 127 124 122 122 122 122 121 119 116 113 109 106 103 99 98 98 99
21 25 18 53 113 180 178 189 159 154 155 134 146 141 129 142 147 147 160 164 165 173 175 182 177 160 167 164 150 142 134 137 142 142 138 131 116 110 105 108 123 125 130 136 140 149 158 160 159 158 156 155 154 153 151 148 148 149 146 144 142 140 140 140 140 141 141 143 145 145 143 143 143 139 136 136 135 132 131 129 127 125 125 126 127 126 123 119 115 111 108 104 100 97 96 95 94
128 97 15 46 55 194 184 195 166 164 166 149 152 145 136 144 144 146 160 171 178 187 190 191 175 152 163 166 151 142 144 147 143 144 143 133 124 115 109 114 125 129 131 135 136 144 153 153 151 150 148 149 149 147 146 145 145 147 144 141 139 139 138 137 137 137 138 141 142 141 139 141 143 140 138 138 135 132 132 131 129 128 129 130 130 127 124 119 115 112 108 104 99 96 96 96 95
213 155 31 44 20 348 171 187 176 174 174 159 155 148 146 146 146 149 154 173 183 190 197 209 259 203 171 171 153 149 148 144 142 146 142 135 132 120 117 119 123 128 129 132 134 139 144 145 143 143 144 145 145 142 141 142 142 143 140 138 138 139 137 135 135 134 136 137 137 136 137 142 145 141 139 137 135 133 133 132 131 132 133 134 133 130 127 123 120 116 112 108 102 98 99 98 99
231 185 46 33 356 342 166 182 180 176 173 158 151 151 154 151 152 153 151 170 178 183 195 215 244 218 180 169 161 156 139 136 138 138 133 126 131 131 131 127 123 124 124 127 133 137 137 139 139 137 140 142 142 140 140 141 141 140 138 138 138 138 137 134 135 134 134 135 135 137 140 145 145 140 138 135 134 134 133 132 133 135 136 137 135 133 129 124 122 119 118 114 106 102 103 102 104
228 261 13 8 346 341 226 200 186 176 171 158 152 155 157 158 158 152 156 175 183 189 200 219 209 186 174 166 169 155 131 131 127 124 132 131 139 146 137 130 125 121 120 124 131 137 134 133 133 133 137 140 142 140 139 140 139 138 137 137 138 138 137 135 135 134 134 135 135 137 140 143 142 138 136 135 135 134 133 133 135 137 138 138 136 132 126 122 122 122 124 122 112 107 108 108 108
179 299 356 359 343 337 277 208 188 179 174 162 155 160 161 161 157 154 164 178 186 193 197 205 180 172 168 162 166 150 127 121 111 117 141 152 153 154 145 135 127 121 120 124 129 133 132 130 130 131 135 138 140 139 137 138 137 137 137 138 138 138 138 137 137 138 138 135 132 133 136 138 136 134 135 136 136 135 134 135 138 139 139 139 137 133 128 124 125 127 130 129 119 113 114 112 109
78 355 2 350 336 323 262 206 191 181 176 168 159 163 164 154 147 156 167 171 177 189 201 216 176 164 157 149 155 151 130 119 109 139 158 169 163 155 152 139 130 123 122 128 129 130 129 129 131 130 133 136 137 136 135 136 136 137 138 139 139 139 139 138 139 140 139 135 132 132 133 134 132 133 136 138 137 136 136 137 139 140 140 140 140 136 132 130 130 131 134 132 124 119 119 118 113
27 7 0 341 335 329 227 194 192 185 177 169 162 160 157 145 141 153 163 166 174 186 206 222 173 155 136 134 155 169 162 175 224 200 165 173 164 153 152 140 132 125 124 130 129 129 128 129 132 131 131 134 136 136 136 136 137 139 140 142 143 142 140 138 138 138 137 134 134 134 132 131 132 134 138 140 140 139 137 138 140 141 141 141 140 138 138 137 136 135 134 132 130 126 122 122 119
15 5 356 343 354 356 187 182 185 182 176 165 158 157 149 140 140 150 159 171 179 187 208 206 158 142 130 140 168 186 195 212 233 198 158 170 164 148 147 139 135 132 129 132 131 130 130 129 133 133 133 136 137 137 138 140 141 143 145 147 147 145 140 137 137 135 135 135 135 133 131 132 134 137 142 143 143 141 140 141 142 143 142 142 142 142 140 136 134 134 134 135 136 132 126 126 124
9 20 11 17 32 38 123 166 173 174 171 161 153 154 148 139 142 152 159 168 175 185 202 175 146 145 149 158 179 192 206 225 235 194 158 166 163 147 149 146 141 140 136 136 135 134 132 133 135 136 137 139 141 141 142 145 146 147 149 150 148 144 140 137 138 140 140 139 136 135 138 140 140 142 147 147 145 144 143 144 145 146 145 144 143 141 136 131 130 133 138 142 141 136 133 134 130
4 29 25 37 46 55 80 129 159 166 164 161 158 156 153 148 150 157 160 163 174 180 177 168 160 165 174 181 191 197 212 229 232 215 168 159 165 154 156 158 149 149 147 141 138 137 136 138 139 139 141 144 145 144 145 148 149 150 150 148 147 145 142 139 139 144 146 144 141 141 144 146 145 146 150 151 149 148 146 146 147 148 147 144 139 134 132 131 133 137 142 147 150 144 140 140 134
328 352 19 41 54 70 88 118 149 160 162 167 168 163 161 159 159 163 164 166 178 180 173 183 182 178 184 196 208 204 211 226 227 229 180 154 175 167 162 169 159 154 154 146 139 139 140 142 143 144 146 149 149 147 147 148 148 149 148 147 149 149 145 143 143 144 145 146 146 146 146 146 146 147 150 152 152 151 148 148 150 148 145 141 136 135 139 142 144 146 148 151 156 154 149 146 138
265 290 348 45 71 96 115 127 141 158 165 171 177 174 170 170 171 170 168 170 180 183 183 197 197 188 193 202 214 209 205 221 224 226 185 156 175 175 165 171 167 160 160 155 146 142 144 146 147 148 149 151 151 151 150 149 148 149 149 150 152 152 149 148 148 144 143 148 151 150 148 146 146 148 150 153 154 153 150 150 150 147 144 139 138 143 148 151 152 151 152 152 151 154 157 154 147
229 259 299 59 96 117 135 145 152 165 176 180 183 183 177 180 183 175 172 173 180 187 192 202 199 195 209 210 213 214 206 212 212 216 197 163 171 176 169 171 171 169 166 162 153 145 147 148 148 150 151 152 153 154 153 152 151 152 153 154 156 156 153 150 147 142 143 149 153 152 149 148 149 151 152 155 157 156 151 149 149 147 145 142 145 152 155 158 158 154 156 156 151 149 154 160 158
213 219 223 128 111 112 132 155 169 175 186 192 193 191 186 189 189 181 179 178 180 189 197 204 198 198 216 217 216 221 213 207 198 207 205 172 167 172 174 175 173 174 171 166 161 153 152 152 151 153 153 155 157 157 156 155 155 156 156 157 160 158 154 150 146 142 143 148 152 151 150 150 152 153 154 157 158 154 150 151 152 153 152 150 153 156 159 165 163 158 159 160 155 149 153 163 164
214 212 202 169 152 124 121 140 161 173 183 194 202 202 197 197 194 190 189 184 182 190 200 205 199 198 212 220 221 224 220 208 198 207 204 175 166 173 180 180 175 178 175 171 169 161 159 160 157 156 158 160 162 161 161 160 159 159 156 157 160 159 155 149 145 144 144 148 151 151 151 153 154 154 156 159 158 153 152 155 158 159 158 156 157 157 158 164 163 160 163 161 155 154 163 169 168
231 221 202 175 155 134 128 126 139 161 174 191 205 208 203 201 198 195 194 190 189 193 199 203 201 202 211 219 222 225 222 209 203 210 202 181 172 175 184 184 178 181 180 177 178 167 162 168 165 160 161 164 167 167 166 164 162 159 155 158 162 161 157 151 149 148 147 149 151 153 155 156 157 158 158 158 158 157 158 160 164 166 162 158 160 162 162 166 169 173 172 165 160 163 169 172 175
233 216 202 194 173 141 140 148 143 149 160 172 187 200 204 204 204 199 195 195 197 198 197 199 204 206 211 217 223 229 225 212 203 203 201 194 178 173 185 188 182 183 183 183 183 172 165 172 172 165 163 167 170 170 168 164 161 159 158 161 165 164 160 155 155 154 151 153 155 157 160 161 162 161 158 158 159 165 167 165 172 175 167 164 167 168 172 175 176 181 181 174 173 172 169 173 177
215 206 205 202 195 172 147 161 159 148 151 152 159 178 196 201 205 204 202 202 203 203 198 197 205 209 212 216 222 229 230 222 204 197 203 207 187 174 184 192 189 185 186 185 182 177 173 174 176 173 169 171 174 171 170 167 162 162 164 165 168 169 165 159 160 163 161 159 159 161 162 163 165 164 162 164 166 173 173 171 179 180 175 175 174 174 180 180 176 181 189 189 183 177 169 174 193
198 203 207 208 199 186 165 164 176 161 144 144 160 166 178 191 202 205 207 207 206 206 201 200 206 209 213 217 219 225 228 227 212 201 210 218 203 185 185 194 196 189 189 188 183 181 179 177 178 179 176 176 178 174 172 172 167 166 169 171 175 174 169 163 163 169 170 166 164 165 164 164 166 167 169 172 173 176 177 179 185 185 183 181 177 179 181 180 182 190 197 197 185 181 179 183 208
177 196 205 219 204 198 191 173 172 166 144 139 169 175 185 196 205 207 208 208 206 206 203 202 205 209 213 217 219 225 226 228 219 209 218 224 214 197 190 196 200 193 191 191 188 186 182 181 181 182 181 182 183 178 177 178 173 173 177 176 176 175 172 171 168 169 172 171 169 167 165 166 168 170 174 178 179 179 179 184 189 190 189 185 181 184 181 179 190 198 200 194 185 194 197 201 228
184 215 263 264 219 212 216 185 169 163 165 170 175 193 201 200 216 211 207 209 208 207 205 203 205 207 212 216 219 223 224 226 225 219 226 230 221 207 196 199 202 199 195 192 193 192 187 188 185 184 186 187 188 184 183 185 181 182 184 179 176 175 174 174 171 169 173 174 171 169 167 168 172 176 178 179 182 184 183 188 192 193 192 187 184 186 181 182 192 198 199 194 191 204 206 199 217
209 235 310 317 263 225 210 187 171 169 186 186 180 208 217 213 250 239 211 213 211 210 209 207 206 207 211 216 219 219 219 222 227 232 237 237 232 221 206 202 202 202 199 193 195 194 191 197 193 188 190 192 194 192 189 190 188 188 188 181 176 175 173 171 168 167 173 176 172 172 173 173 176 179 180 179 183 189 191 193 195 194 192 188 186 186 183 189 198 200 203 203 198 206 217 214 212
226 264 314 327 299 227 196 185 174 173 189 183 181 211 256 278 288 262 229 221 211 213 213 210 209 210 211 215 218 217 217 219 221 231 240 239 239 232 212 204 203 203 202 196 196 195 192 200 201 195 195 195 198 200 195 192 193 190 185 179 176 177 179 178 173 170 173 176 174 176 178 179 181 181 181 182 185 190 194 197 197 195 197 191 188 190 188 196 206 204 210 215 210 214 224 227 226
214 308 299 312 293 210 194 189 175 164 158 172 189 215 261 285 295 265 245 233 211 217 217 211 210 212 212 214 218 219 219 219 218 222 233 239 242 237 217 206 203 203 204 200 200 198 192 199 206 202 201 200 201 205 200 194 195 193 188 185 181 180 184 185 182 178 174 172 175 178 179 181 183 183 183 184 188 193 194 197 197 195 197 194 194 199 197 204 212 212 218 223 219 219 224 229 232
237 3 324 335 194 196 193 184 170 158 160 183 196 207 239 270 267 262 259 242 230 232 227 218 213 214 214 214 217 221 220 219 217 219 228 238 241 235 220 207 203 205 206 204 205 202 196 198 205 207 207 204 204 205 202 198 197 197 195 192 186 183 185 185 182 182 177 172 175 178 179 181 184 186 187 186 191 195 194 194 197 196 194 193 199 203 199 206 217 221 220 220 223 225 231 241 246
235 221 247 164 161 185 197 193 175 163 177 207 207 203 216 260 262 255 254 254 258 257 244 228 220 217 217 215 215 219 221 218 215 217 224 235 239 234 224 210 204 207 207 205 206 205 201 200 202 207 209 208 207 205 205 204 202 200 199 198 193 187 187 185 181 181 179 175 176 176 177 183 187 189 190 192 194 196 195 195 197 198 194 193 200 203 201 205 216 222 211 208 221 232 239 247 256
238 240 249 228 200 193 197 199 184 171 213 247 232 217 219 258 274 254 251 276 298 279 250 234 224 220 218 216 213 216 221 219 214 215 220 230 236 235 230 218 207 208 209 206 206 208 206 203 203 205 208 210 210 207 208 211 208 204 202 201 198 192 191 190 183 180 179 177 178 177 179 183 187 191 192 192 195 194 193 196 197 198 197 197 201 204 207 210 213 216 209 206 217 228 233 239 248
244 287 275 240 243 229 203 195 190 194 271 277 267 229 220 231 269 272 266 275 282 258 254 245 231 224 217 215 212 213 220 221 216 214 217 224 232 235 233 223 212 209 210 209 207 208 210 207 203 203 206 209 209 209 211 214 212 208 205 204 201 195 195 193 186 184 185 182 180 181 183 184 186 190 190 189 190 189 190 194 196 199 201 202 207 209 212 214 212 212 212 213 221 226 229 233 239
239 280 304 231 256 265 272 218 192 215 291 327 327 217 214 236 256 270 273 261 254 255 265 270 249 230 219 216 212 212 218 222 219 215 214 219 228 234 232 224 216 211 212 213 209 208 211 211 207 204 204 207 208 210 212 215 213 209 208 207 203 199 197 194 190 188 190 190 187 186 188 187 186 187 185 186 189 187 188 192 193 198 202 202 208 210 210 211 210 211 214 218 223 224 226 233 241
250 261 249 217 95 74 277 301 343 309 307 118 136 176 207 251 248 262 275 270 272 279 282 285 255 221 212 215 215 214 215 220 221 217 215 218 227 236 234 226 218 213 213 215 213 210 211 213 211 206 203 205 208 210 213 215 214 210 209 208 206 203 199 198 197 193 194 195 193 194 193 190 188 187 184 187 191 188 190 193 190 194 199 199 203 202 199 199 199 204 210 217 221 220 225 235 244
114 117 217 204 140 106 217 241 142 228 218 170 173 199 235 233 228 249 273 283 284 288 292 284 248 214 202 204 213 215 215 217 221 220 218 218 224 235 237 230 222 217 216 217 214 210 211 214 214 208 204 203 205 210 212 214 213 209 208 208 207 204 200 202 203 200 199 199 198 198 197 192 191 190 188 189 190 188 190 193 191 193 196 195 199 199 198 199 199 204 209 215 219 218 225 235 239
124 108 130 132 116 98 151 173 185 204 208 180 190 197 198 209 237 250 263 287 287 290 302 290 269 247 225 211 206 210 214 215 218 221 219 217 220 231 238 233 228 225 221 218 214 207 206 213 216 212 208 204 204 208 210 211 212 209 207 207 208 206 203 204 204 204 203 204 203 201 197 196 196 195 192 192 192 192 194 195 195 198 198 197 201 204 206 206 206 211 213 217 222 223 228 234 237
161 148 118 105 121 281 283 206 226 167 123 164 180 180 183 202 244 256 262 286 286 291 305 296 282 261 236 219 205 204 209 211 214 219 219 216 217 225 236 237 233 229 225 220 213 203 199 207 214 215 211 207 204 205 207 207 208 206 205 206 208 209 209 209 207 206 207 208 207 204 201 201 198 196 194 194 197 198 198 198 198 200 202 203 207 210 212 213 214 219 222 226 229 229 232 236 240
195 153 131 122 160 241 302 219 328 44 87 187 188 189 192 197 222 247 258 283 286 288 297 291 288 260 230 218 203 199 204 208 211 217 220 221 219 221 230 237 236 232 229 226 215 200 194 202 210 215 215 211 207 205 205 206 206 204 204 205 209 211 213 213 212 211 210 210 208 207 208 206 203 201 198 196 197 198 199 200 200 200 201 204 211 215 217 221 222 223 226 232 234 233 235 240 246
225 229 226 181 167 144 79 84 75 59 17 270 193 190 196 209 226 235 250 277 282 288 297 295 299 279 217 207 199 196 201 207 210 214 220 223 223 221 222 230 236 234 232 231 222 205 195 199 207 213 215 214 211 209 207 207 206 204 204 205 209 213 214 213 214 214 213 212 210 209 210 209 208 209 206 201 198 199 202 204 201 202 204 207 213 217 220 225 231 234 233 236 239 239 240 246 252
187 182 171 145 145 135 114 103 129 148 178 299 207 192 190 204 219 226 243 269 279 287 298 300 302 298 249 197 190 194 203 210 213 217 221 223 225 225 220 221 230 237 236 233 227 213 201 199 206 212 213 212 213 212 210 210 209 207 206 207 210 213 215 215 216 217 215 214 215 213 212 212 213 213 211 207 204 205 208 208 206 207 211 213 217 220 222 224 229 234 236 238 240 236 237 242 247
163 149 126 121 137 159 157 138 137 160 180 159 174 266 253 223 229 240 255 279 287 289 291 288 282 281 270 234 204 196 205 214 219 223 227 227 229 230 224 217 220 232 239 237 230 219 210 205 206 212 214 212 213 214 212 211 212 211 209 210 212 215 217 219 220 221 219 217 218 216 216 218 217 216 215 211 210 213 216 215 212 212 216 220 222 223 226 228 228 229 230 231 231 229 231 235 238
156 145 118 121 161 176 168 141 156 180 197 172 156 254 274 261 253 257 269 287 291 288 289 280 258 250 255 252 232 210 206 213 220 225 228 230 231 231 229 222 216 218 230 236 233 225 217 208 204 210 216 216 214 214 216 215 215 215 213 212 214 216 219 221 224 224 222 221 221 218 219 221 221 220 219 217 217 220 224 224 221 218 216 218 220 221 224 226 227 227 226 225 225 225 228 231 235